星链-3651 (STARLINK-3651 )

导读 | 星芒AI

STARLINK-3651 是 SpaceX 星链计划中的一颗低轨通信卫星,属于第 12 批组网发射的星链卫星之一。该卫星于 2023 年 11 月发射,部署在约 550 公里的轨道高度,用于提供全球宽带互联网服务。它采用先进的推进系统和激光通信技术,支持高速、低延迟的网络连接,主要服务于偏远和网络覆盖不足的地区。星链项目旨在构建一个由数千颗卫星组成的星座,提升全球互联网接入能力。

基本信息
目录编号:
51985
目录名称:
STARLINK-3651
国际标识:
2022-025AF
轨道中心:
EARTH
卫星名称:
星链-3651
卫星全名:
星链-3651 (STARLINK-3651 )
卫星状态:
在轨 (已飞行1383 天)
发射日期:
2022-03-09 UTC
国别 :
美国 (US)
星等 :
--
轨道信息
数据来源 国际轨道数据
星历时间: 2025-12-20T10:48:44+0800
21小时前
查看轨道信息
半长轴: 6917.937km
偏心率: 0.0001038
轨道倾角: 53.219°
近地点辐角 89.503°
升交点赤经 36.345°
平近点角 270.608°
近地点: 539.081km
远地点: 540.519km
周期: 95.439分钟
每日圈数: 15.088217
详细信息
固有亮度:
5
最大亮度:
2.5
卫星平台:
Starlink v1.5
覆盖范围:
全球
运营商:
太空探索技术公司
运营商所在国:
美国
制造商(研发单位):
太空探索技术公司
制造商所在国:
美国
使用方式:
暂无
卫星简介
星链(Starlink)计划是由太空探索技术公司(SpaceX)提出的一个巨型低轨卫星互联网星座项目,计划在2019年至2024年间在太空搭建由约1.2万颗卫星组成的“星链”网络,其中1584颗将部署在地球上空550千米处的近地轨道,并从2020年开始工作。该卫星仍在工作。
2D轨道图
3D轨道图
轨道高度分析图
轨道倾角分析图
轨道综合分析图
查看轨道综合分析图